UZB234 UZTT-UNNT

Flight info

Callsign UZB234
Flight time 2h 33m
Altitude 39000
Route BAMUT1B BAMUT Z554 SMK N102 BLH M149 LAGMO B955 ORPAS ORPAS1N
Aircraft A20N/M-SDE2E3FGHIRWXY/LB1

Departure

Time 2026-04-24 17:08
Airport Tashkent International Airport (UZTT)

Arrival

Time 2026-04-24 19:41
Airport Novosibirsk Tolmachevo Airport (UNNT)
Time Latitude Longitude Altitude Speed Heading
2026-04-24 16:52 41.26143 69.27367 1403 ft 0 kts 83°
2026-04-24 16:57 41.26143 69.27366 1403 ft 0 kts 83°
2026-04-24 16:58 41.26142 69.27364 1403 ft 1 kts 83°
2026-04-24 16:59 41.26141 69.27353 1403 ft 1 kts 83°
2026-04-24 16:59 41.26140 69.27342 1408 ft 2 kts 83°
2026-04-24 16:59 41.26137 69.27303 1412 ft 2 kts 83°
2026-04-24 17:00 41.26135 69.27277 1411 ft 2 kts 83°
2026-04-24 17:00 41.26132 69.27243 1407 ft 2 kts 83°
2026-04-24 17:00 41.26131 69.27224 1403 ft 2 kts 101°
2026-04-24 17:01 41.26144 69.27189 1407 ft 2 kts 138°
2026-04-24 17:01 41.26149 69.27136 1407 ft 10 kts 30°
2026-04-24 17:02 41.26114 69.27151 1412 ft 0 kts 297°
2026-04-24 17:03 41.26114 69.27152 1412 ft 0 kts 297°
2026-04-24 17:04 41.26117 69.27118 1410 ft 6 kts 276°
2026-04-24 17:04 41.26102 69.27053 1406 ft 10 kts 247°
2026-04-24 17:05 41.26060 69.26922 1413 ft 21 kts 246°
2026-04-24 17:05 41.25999 69.26731 1408 ft 24 kts 246°
2026-04-24 17:05 41.25832 69.26400 1403 ft 18 kts 218°
2026-04-24 17:06 41.25745 69.26285 1409 ft 17 kts 237°
2026-04-24 17:06 41.25624 69.26084 1407 ft 7 kts 132°
2026-04-24 17:06 41.25626 69.26121 1404 ft 6 kts 83°
2026-04-24 17:07 41.25633 69.26199 1404 ft 21 kts 83°
2026-04-24 17:07 41.25691 69.26703 1405 ft 87 kts 82°
2026-04-24 17:07 41.25966 69.29175 1509 ft 166 kts 81°
2026-04-24 17:08 41.26268 69.32062 2760 ft 158 kts 82°
2026-04-24 17:08 41.26407 69.33568 3127 ft 171 kts 83°
2026-04-24 17:08 41.26551 69.35228 3425 ft 190 kts 83°
2026-04-24 17:09 41.26915 69.39024 4265 ft 216 kts 83°
2026-04-24 17:09 41.27328 69.42990 5468 ft 220 kts 83°
2026-04-24 17:10 41.27542 69.45027 6071 ft 222 kts 83°
2026-04-24 17:10 41.28439 69.51196 7611 ft 242 kts 59°
2026-04-24 17:11 41.33316 69.53063 9185 ft 270 kts 342°
2026-04-24 17:12 41.43845 69.50001 11409 ft 352 kts 348°
2026-04-24 18:54 52.25151 79.71392 39090 ft 471 kts 31°
2026-04-24 18:55 52.33256 79.80477 39091 ft 471 kts 31°
2026-04-24 18:56 52.38627 79.86519 39088 ft 471 kts 31°
2026-04-24 18:56 52.44027 79.92612 39089 ft 471 kts 31°
2026-04-24 18:57 52.49433 79.98730 39086 ft 472 kts 31°
2026-04-24 18:57 52.54835 80.04862 39088 ft 472 kts 31°
2026-04-24 18:58 52.60239 80.11017 39092 ft 472 kts 31°
2026-04-24 18:58 52.65635 80.17180 39090 ft 472 kts 31°
2026-04-24 18:59 52.71041 80.23375 39090 ft 473 kts 31°
2026-04-24 18:59 52.76437 80.29576 39089 ft 473 kts 31°
2026-04-24 19:00 52.81796 80.35754 39086 ft 473 kts 31°
2026-04-24 19:00 52.87192 80.41992 39083 ft 473 kts 31°
2026-04-24 19:01 52.92586 80.48249 39083 ft 473 kts 31°
2026-04-24 19:01 52.97980 80.54526 39090 ft 473 kts 31°
2026-04-24 19:02 53.02455 80.59747 39081 ft 473 kts 31°
2026-04-24 19:02 53.08757 80.67122 39081 ft 474 kts 31°
2026-04-24 19:03 53.14144 80.73449 39082 ft 474 kts 31°
2026-04-24 19:03 53.19538 80.79803 39082 ft 474 kts 31°
2026-04-24 19:04 53.24930 80.86176 39081 ft 475 kts 31°
2026-04-24 19:04 53.30287 80.92526 39076 ft 475 kts 31°
2026-04-24 19:05 53.35668 80.98926 39080 ft 475 kts 31°
2026-04-24 19:05 53.41059 81.05358 39079 ft 476 kts 31°
2026-04-24 19:06 53.46448 81.11808 39079 ft 476 kts 31°
2026-04-24 19:06 53.51836 81.18276 39078 ft 476 kts 31°
2026-04-24 19:07 53.57214 81.24754 39078 ft 476 kts 31°
2026-04-24 19:07 53.61681 81.30151 39075 ft 476 kts 31°
2026-04-24 19:08 53.67965 81.37765 39071 ft 476 kts 31°
2026-04-24 19:08 53.73280 81.44298 38666 ft 474 kts 36°
2026-04-24 19:08 53.75619 81.48267 38013 ft 480 kts 48°
2026-04-24 19:09 53.76890 81.51333 37533 ft 484 kts 57°
2026-04-24 19:09 53.78670 81.58365 36525 ft 490 kts 74°
2026-04-24 19:09 53.79113 81.62105 36046 ft 491 kts 83°
2026-04-24 19:09 53.79084 81.69711 35109 ft 491 kts 101°
2026-04-24 19:10 53.78252 81.75297 34424 ft 487 kts 114°
2026-04-24 19:10 53.77320 81.78810 33962 ft 483 kts 123°
2026-04-24 19:10 53.74732 81.84795 32883 ft 473 kts 140°
2026-04-24 19:10 53.73077 81.87285 32287 ft 469 kts 148°
2026-04-24 19:11 53.70351 81.90098 31431 ft 463 kts 161°
2026-04-24 19:11 53.67330 81.91865 30530 ft 457 kts 173°
2026-04-24 19:11 53.64206 81.92453 29727 ft 447 kts 186°
2026-04-24 19:11 53.60225 81.91401 28907 ft 427 kts 204°
2026-04-24 19:12 53.58389 81.90121 28474 ft 418 kts 213°
2026-04-24 19:12 53.56055 81.87436 27845 ft 405 kts 227°
2026-04-24 19:12 53.54244 81.83911 27207 ft 395 kts 241°
2026-04-24 19:12 53.52992 81.79860 26595 ft 388 kts 248°
2026-04-24 19:13 53.52219 81.77095 26191 ft 386 kts 246°
2026-04-24 19:13 53.50667 81.71765 25422 ft 379 kts 254°
2026-04-24 19:13 53.50197 81.67455 24824 ft 374 kts 269°
2026-04-24 19:13 53.50498 81.63149 24263 ft 371 kts 284°
2026-04-24 19:14 53.51534 81.59192 23707 ft 372 kts 300°
2026-04-24 19:14 53.53238 81.55911 23071 ft 376 kts 316°
2026-04-24 19:14 53.55473 81.53602 22480 ft 382 kts 332°
2026-04-24 19:14 53.58065 81.52483 21874 ft 390 kts 349°
2026-04-24 19:15 53.60773 81.52253 21300 ft 389 kts 352°
2026-04-24 19:15 53.63468 81.52099 20730 ft 386 kts 352°
2026-04-24 19:15 53.66139 81.51950 20188 ft 382 kts 352°
2026-04-24 19:15 53.68807 81.52286 19634 ft 390 kts
2026-04-24 19:16 53.73827 81.56001 18568 ft 394 kts 21°
2026-04-24 19:16 53.76219 81.58066 18251 ft 389 kts 21°
2026-04-24 19:16 53.78636 81.60144 17986 ft 392 kts 21°
2026-04-24 19:17 53.81068 81.62220 17710 ft 391 kts 21°
2026-04-24 19:17 53.83493 81.64284 17445 ft 389 kts 21°
2026-04-24 19:17 53.85907 81.66334 17189 ft 388 kts 21°
2026-04-24 19:17 53.88305 81.68370 16926 ft 386 kts 21°
2026-04-24 19:18 53.90706 81.70409 16668 ft 385 kts 20°
2026-04-24 19:18 53.93096 81.72444 16410 ft 384 kts 21°
2026-04-24 19:18 53.95481 81.74475 16163 ft 383 kts 21°
2026-04-24 19:18 53.97855 81.76501 15909 ft 382 kts 21°
2026-04-24 19:19 54.00222 81.78524 15654 ft 381 kts 21°
2026-04-24 19:19 54.02456 81.80994 15414 ft 388 kts 36°
2026-04-24 19:19 54.04268 81.84432 15162 ft 394 kts 53°
2026-04-24 19:19 54.05630 81.88493 14930 ft 396 kts 58°
2026-04-24 19:20 54.06948 81.92605 14684 ft 394 kts 58°
2026-04-24 19:20 54.08260 81.96692 14442 ft 393 kts 58°
2026-04-24 19:20 54.09568 82.00768 14206 ft 391 kts 58°
2026-04-24 19:20 54.10867 82.04819 13939 ft 389 kts 58°
2026-04-24 19:21 54.12159 82.08851 13494 ft 386 kts 58°
2026-04-24 19:21 54.13437 82.12844 13152 ft 380 kts 58°
2026-04-24 19:21 54.14704 82.16807 13064 ft 384 kts 58°
2026-04-24 19:21 54.15985 82.20811 13060 ft 384 kts 58°
2026-04-24 19:22 54.16830 82.23460 13059 ft 384 kts 58°
2026-04-24 19:22 54.18533 82.28812 13060 ft 384 kts 59°
2026-04-24 19:22 54.19803 82.32816 13057 ft 384 kts 59°
2026-04-24 19:22 54.21072 82.36824 13060 ft 383 kts 59°
2026-04-24 19:23 54.22340 82.40835 13059 ft 384 kts 59°
2026-04-24 19:23 54.23602 82.44836 13058 ft 384 kts 59°
2026-04-24 19:23 54.24865 82.48845 13057 ft 384 kts 59°
2026-04-24 19:23 54.26131 82.52871 13062 ft 384 kts 59°
2026-04-24 19:24 54.27393 82.56890 13048 ft 383 kts 59°
2026-04-24 19:24 54.28640 82.60870 12987 ft 375 kts 59°
2026-04-24 19:24 54.30066 82.64521 12569 ft 366 kts 42°
2026-04-24 19:24 54.32067 82.67116 11920 ft 358 kts 20°
2026-04-24 19:25 54.34400 82.68329 11412 ft 345 kts
2026-04-24 19:25 54.36766 82.68943 10916 ft 343 kts
2026-04-24 19:25 54.39118 82.69560 10471 ft 340 kts
2026-04-24 19:25 54.41404 82.70178 10331 ft 326 kts
2026-04-24 19:26 54.43599 82.70783 10211 ft 313 kts
2026-04-24 19:26 54.45707 82.71367 10101 ft 300 kts
2026-04-24 19:26 54.47706 82.71920 9899 ft 292 kts
2026-04-24 19:26 54.49705 82.72466 9508 ft 290 kts
2026-04-24 19:27 54.51691 82.73007 9106 ft 288 kts
2026-04-24 19:27 54.53636 82.73544 8968 ft 277 kts
2026-04-24 19:27 54.55500 82.74064 8868 ft 266 kts
2026-04-24 19:27 54.57287 82.74563 8762 ft 254 kts
2026-04-24 19:28 54.58990 82.75037 8595 ft 246 kts
2026-04-24 19:28 54.60689 82.75502 8270 ft 245 kts
2026-04-24 19:28 54.62371 82.75961 7962 ft 244 kts
2026-04-24 19:28 54.64045 82.76421 7648 ft 243 kts
2026-04-24 19:29 54.67374 82.77343 7089 ft 239 kts
2026-04-24 19:29 54.69024 82.77802 7016 ft 242 kts
2026-04-24 19:29 54.70694 82.78130 6982 ft 240 kts 353°
2026-04-24 19:30 54.72315 82.77753 6853 ft 232 kts 338°
2026-04-24 19:30 54.73864 82.76983 6738 ft 231 kts 338°
2026-04-24 19:30 54.75415 82.76236 6614 ft 232 kts 339°
2026-04-24 19:30 54.76970 82.75501 6491 ft 231 kts 339°
2026-04-24 19:31 54.78557 82.74985 6267 ft 234 kts 349°
2026-04-24 19:31 54.80191 82.74837 5965 ft 236 kts 353°
2026-04-24 19:31 54.81828 82.74781 5647 ft 235 kts 353°
2026-04-24 19:31 54.83462 82.74726 5353 ft 234 kts 353°
2026-04-24 19:32 54.85087 82.74673 5056 ft 233 kts 353°
2026-04-24 19:32 54.86706 82.74619 4768 ft 232 kts 353°
2026-04-24 19:32 54.88319 82.74561 4482 ft 231 kts 353°
2026-04-24 19:32 54.89923 82.74500 4201 ft 230 kts 353°
2026-04-24 19:33 54.91520 82.74441 3928 ft 229 kts 353°
2026-04-24 19:33 54.93107 82.74382 3657 ft 228 kts 353°
2026-04-24 19:33 54.94689 82.74324 3402 ft 227 kts 353°
2026-04-24 19:33 54.96260 82.74268 3134 ft 225 kts 353°
2026-04-24 19:34 54.97808 82.74218 3012 ft 224 kts 353°
2026-04-24 19:34 54.99381 82.74147 2994 ft 225 kts 351°
2026-04-24 19:34 55.00930 82.73926 3002 ft 223 kts 349°
2026-04-24 19:34 55.02473 82.73681 2996 ft 223 kts 349°
2026-04-24 19:35 55.04015 82.73431 3005 ft 223 kts 349°
2026-04-24 19:35 55.05559 82.73174 3006 ft 224 kts 349°
2026-04-24 19:35 55.07107 82.72877 3006 ft 223 kts 346°
2026-04-24 19:35 55.08608 82.72450 3005 ft 221 kts 345°
2026-04-24 19:36 55.10124 82.72002 2998 ft 221 kts 345°
2026-04-24 19:36 55.11636 82.71552 2922 ft 219 kts 345°
2026-04-24 19:36 55.13140 82.71098 2669 ft 220 kts 345°
2026-04-24 19:36 55.14638 82.70615 2419 ft 217 kts 340°
2026-04-24 19:37 55.15852 82.69315 2273 ft 197 kts 306°
2026-04-24 19:37 55.16431 82.67283 2166 ft 182 kts 278°
2026-04-24 19:37 55.16373 82.65139 2000 ft 174 kts 252°
2026-04-24 19:37 55.15748 82.63247 2001 ft 185 kts 236°
2026-04-24 19:38 55.14981 82.61466 1998 ft 182 kts 236°
2026-04-24 19:38 55.14239 82.59720 2022 ft 171 kts 236°
2026-04-24 19:38 55.13425 82.58337 1992 ft 158 kts 216°
2026-04-24 19:38 55.12419 82.57698 1893 ft 154 kts 195°
2026-04-24 19:39 55.11355 82.57623 1702 ft 151 kts 183°
2026-04-24 19:39 55.10323 82.57817 1504 ft 149 kts 178°
2026-04-24 19:39 55.09345 82.58088 1295 ft 136 kts 176°
2026-04-24 19:39 55.08419 82.58352 1107 ft 136 kts 174°
2026-04-24 19:40 55.07504 82.58636 925 ft 132 kts 173°
2026-04-24 19:40 55.06603 82.58909 743 ft 132 kts 173°
2026-04-24 19:40 55.05701 82.59189 577 ft 132 kts 172°
2026-04-24 19:40 55.04799 82.59472 390 ft 131 kts 173°
2026-04-24 19:41 55.03985 82.59708 371 ft 92 kts 171°
2026-04-24 19:41 55.03611 82.59821 374 ft 38 kts 171°
2026-04-24 19:41 55.03361 82.59892 374 ft 35 kts 167°
2026-04-24 19:41 55.03125 82.59973 374 ft 33 kts 171°
2026-04-24 19:42 55.02904 82.60038 374 ft 31 kts 171°
2026-04-24 19:42 55.02746 82.60019 375 ft 22 kts 195°
2026-04-24 19:42 55.02635 82.59940 375 ft 16 kts 207°
2026-04-24 19:42 55.02556 82.59853 375 ft 13 kts 213°
2026-04-24 19:43 55.02469 82.59816 375 ft 14 kts 173°
2026-04-24 19:43 55.02368 82.59846 375 ft 16 kts 170°
2026-04-24 19:43 55.02257 82.59880 376 ft 17 kts 170°
2026-04-24 19:43 55.02136 82.59917 376 ft 18 kts 170°
2026-04-24 19:44 55.02008 82.59956 376 ft 19 kts 170°
2026-04-24 19:44 55.01873 82.59996 376 ft 20 kts 170°
2026-04-24 19:44 55.01733 82.60042 377 ft 21 kts 168°
2026-04-24 19:44 55.01589 82.60085 377 ft 21 kts 171°
2026-04-24 19:45 55.01441 82.60128 377 ft 22 kts 169°
2026-04-24 19:45 55.01288 82.60176 376 ft 23 kts 170°
2026-04-24 19:45 55.01131 82.60224 376 ft 23 kts 169°
2026-04-24 19:45 55.00973 82.60272 376 ft 23 kts 170°
2026-04-24 19:46 55.00823 82.60351 375 ft 23 kts 149°
2026-04-24 19:46 55.00717 82.60560 375 ft 24 kts 127°
2026-04-24 19:46 55.00651 82.60794 374 ft 20 kts 95°
2026-04-24 19:46 55.00671 82.61091 374 ft 37 kts 81°
2026-04-24 19:47 55.00722 82.61669 373 ft 50 kts 81°
2026-04-24 19:47 55.00776 82.62247 373 ft 47 kts 81°
2026-04-24 19:47 55.00830 82.62844 373 ft 56 kts 81°
2026-04-24 19:47 55.00889 82.63497 373 ft 53 kts 81°
2026-04-24 19:48 55.00940 82.64042 373 ft 34 kts 81°
2026-04-24 19:48 55.00948 82.64416 373 ft 29 kts 102°
2026-04-24 19:48 55.00911 82.64693 373 ft 3 kts 102°
2026-04-24 19:49 55.00891 82.64862 373 ft 11 kts 102°
2026-04-24 19:49 55.00878 82.65163 373 ft 14 kts 85°
2026-04-24 19:50 55.00907 82.65559 373 ft 10 kts 81°
2026-04-24 19:50 55.00920 82.65703 373 ft 14 kts 81°
2026-04-24 19:51 55.00947 82.65975 373 ft 0 kts 80°
2026-04-24 19:52 55.00961 82.66114 373 ft 15 kts 80°
2026-04-24 19:52 55.00995 82.66298 373 ft 17 kts 54°
2026-04-24 19:52 55.01040 82.66465 373 ft 14 kts 73°
2026-04-24 19:52 55.01050 82.66576 373 ft 3 kts 146°
2026-04-24 19:53 55.01040 82.66580 373 ft 3 kts 163°
2026-04-24 19:53 55.01024 82.66585 373 ft 2 kts 171°
2026-04-24 19:53 55.01012 82.66588 373 ft 0 kts 171°